When you browse on this site, cookies collect data to enhance your experience and personalize the content and advertising you see.
Visit our Privacy Policy to learn more. By continuing to use the site, you agree to this use of cookies and data.
EN

Hourly Weather Kabul

Today, 3 July, Friday

Time Temperature Precipitation Wind Pressure Humidity
00:00 +23°C° 0 mm 2 mps 610 mmHg 27%
01:00 +21°C° 0 mm 2 mps 609 mmHg 28%
02:00 +20°C° 0 mm 2 mps 609 mmHg 29%
03:00 +20°C° 0 mm 2 mps 609 mmHg 30%
04:00 +19°C° 0 mm 2 mps 608 mmHg 31%
05:00 +18°C° 0 mm 2 mps 608 mmHg 33%
06:00 +20°C° 0 mm 2 mps 609 mmHg 29%
07:00 +21°C° 0 mm 2 mps 609 mmHg 26%
08:00 +24°C° 0 mm 1 mps 610 mmHg 22%
09:00 +25°C° 0 mm 2 mps 610 mmHg 20%
10:00 +27°C° 0 mm 2 mps 611 mmHg 18%
11:00 +28°C° 0 mm 2 mps 611 mmHg 15%
12:00 +29°C° 0 mm 2 mps 611 mmHg 14%
13:00 +31°C° 0 mm 3 mps 611 mmHg 12%
14:00 +33°C° 0 mm 3 mps 611 mmHg 11%
15:00 +33°C° 0 mm 4 mps 611 mmHg 11%
16:00 +33°C° 0 mm 5 mps 611 mmHg 11%
17:00 +33°C° 0 mm 5 mps 610 mmHg 11%
18:00 +30°C° 0 mm 5 mps 610 mmHg 13%
19:00 +29°C° 0 mm 4 mps 610 mmHg 15%
20:00 +27°C° 0 mm 3 mps 609 mmHg 17%
21:00 +26°C° 0 mm 2 mps 609 mmHg 18%
22:00 +25°C° 0 mm 2 mps 609 mmHg 20%
23:00 +23°C° 0 mm 2 mps 609 mmHg 22%

Tomorrow, 4 July, Saturday

Time Temperature Precipitation Wind Pressure Humidity
00:00 +23°C° 0 mm 2 mps 608 mmHg 23%
01:00 +22°C° 0 mm 1 mps 608 mmHg 24%
02:00 +21°C° 0 mm 1 mps 607 mmHg 25%
03:00 +21°C° 0 mm 1 mps 607 mmHg 25%
04:00 +20°C° 0 mm 1 mps 607 mmHg 26%
05:00 +19°C° 0 mm 1 mps 606 mmHg 27%
06:00 +21°C° 0 mm 1 mps 607 mmHg 23%
07:00 +23°C° 0 mm 1 mps 608 mmHg 20%
08:00 +24°C° 0 mm 1 mps 609 mmHg 17%
09:00 +26°C° 0 mm 2 mps 609 mmHg 15%
10:00 +27°C° 0 mm 2 mps 609 mmHg 14%
11:00 +29°C° 0 mm 2 mps 609 mmHg 12%
12:00 +30°C° 0 mm 3 mps 609 mmHg 11%
13:00 +31°C° 0 mm 3 mps 609 mmHg 10%
14:00 +33°C° 0 mm 4 mps 609 mmHg 9%
15:00 +33°C° 0 mm 5 mps 609 mmHg 9%
16:00 +33°C° 0 mm 6 mps 609 mmHg 10%
17:00 +33°C° 0 mm 7 mps 608 mmHg 10%
18:00 +30°C° 0 mm 5 mps 608 mmHg 12%
19:00 +29°C° 0 mm 4 mps 608 mmHg 13%
20:00 +27°C° 0 mm 3 mps 608 mmHg 15%
21:00 +26°C° 0 mm 3 mps 608 mmHg 16%
22:00 +25°C° 0 mm 3 mps 607 mmHg 17%
23:00 +24°C° 0 mm 2 mps 607 mmHg 18%

Day after tomorrow, 5 July, Sunday

Time Temperature Precipitation Wind Pressure Humidity
00:00 +24°C° 0 mm 2 mps 607 mmHg 19%
01:00 +23°C° 0 mm 2 mps 606 mmHg 20%
02:00 +22°C° 0 mm 1 mps 606 mmHg 22%
03:00 +22°C° 0 mm 1 mps 606 mmHg 23%
04:00 +21°C° 0 mm 1 mps 606 mmHg 24%
05:00 +21°C° 0 mm 1 mps 605 mmHg 25%
06:00 +22°C° 0 mm 1 mps 606 mmHg 24%
07:00 +23°C° 0 mm 1 mps 606 mmHg 22%
08:00 +24°C° 0 mm 1 mps 607 mmHg 20%
09:00 +25°C° 0 mm 2 mps 607 mmHg 21%
10:00 +26°C° 0 mm 2 mps 607 mmHg 23%
11:00 +27°C° 0 mm 2 mps 608 mmHg 24%
12:00 +28°C° 0 mm 2 mps 608 mmHg 23%
13:00 +29°C° 0 mm 2 mps 608 mmHg 23%
14:00 +30°C° 0 mm 2 mps 608 mmHg 22%
15:00 +30°C° 0 mm 3 mps 608 mmHg 21%
16:00 +30°C° 0 mm 3 mps 607 mmHg 21%
17:00 +30°C° 0 mm 4 mps 607 mmHg 21%
18:00 +30°C° 0 mm 4 mps 607 mmHg 22%
19:00 +29°C° 0 mm 4 mps 607 mmHg 23%
20:00 +28°C° 0 mm 4 mps 608 mmHg 24%
21:00 +27°C° 0 mm 3 mps 607 mmHg 24%
22:00 +26°C° 0 mm 2 mps 607 mmHg 25%
23:00 +26°C° 0 mm 1 mps 607 mmHg 26%

6 July, Monday

Time Temperature Precipitation Wind Pressure Humidity
00:00 +25°C° 0 mm 1 mps 607 mmHg 28%
01:00 +24°C° 0 mm 1 mps 607 mmHg 30%
02:00 +23°C° 0 mm 1 mps 606 mmHg 33%
03:00 +23°C° 0 mm 1 mps 606 mmHg 35%
04:00 +22°C° 0 mm 1 mps 605 mmHg 38%
05:00 +19°C° 0 mm 0 mps 605 mmHg 41%
06:00 +21°C° 0 mm 0 mps 606 mmHg 38%
07:00 +24°C° 0 mm 1 mps 606 mmHg 34%
08:00 +26°C° 0 mm 1 mps 607 mmHg 30%
09:00 +27°C° 0 mm 1 mps 607 mmHg 27%
10:00 +28°C° 0 mm 1 mps 608 mmHg 25%
11:00 +30°C° 0 mm 1 mps 608 mmHg 22%
12:00 +31°C° 0 mm 1 mps 608 mmHg 20%
13:00 +32°C° 0 mm 2 mps 608 mmHg 18%
14:00 +34°C° 0 mm 2 mps 608 mmHg 16%
15:00 +32°C° 0 mm 2 mps 608 mmHg 16%
16:00 +32°C° 0 mm 2 mps 608 mmHg 17%
17:00 +32°C° 0 mm 2 mps 608 mmHg 18%
18:00 +29°C° 0.2 mm 3 mps 607 mmHg 25%
19:00 +27°C° 0.2 mm 4 mps 607 mmHg 32%
20:00 +24°C° 0.2 mm 6 mps 607 mmHg 39%
21:00 +23°C° 0.2 mm 5 mps 607 mmHg 41%
22:00 +23°C° 0.2 mm 4 mps 607 mmHg 43%
23:00 +23°C° 0.2 mm 4 mps 608 mmHg 45%

7 July, Tuesday

Time Temperature Precipitation Wind Pressure Humidity
00:00 +24°C° 0 mm 3 mps 608 mmHg 45%
01:00 +23°C° 0 mm 2 mps 607 mmHg 45%
02:00 +23°C° 0 mm 1 mps 607 mmHg 45%
03:00 +23°C° 0 mm 1 mps 607 mmHg 47%
04:00 +22°C° 0 mm 1 mps 607 mmHg 48%
05:00 +22°C° 0 mm 1 mps 606 mmHg 50%
06:00 +23°C° 0 mm 1 mps 607 mmHg 46%
07:00 +24°C° 0 mm 1 mps 607 mmHg 41%
08:00 +25°C° 0 mm 1 mps 608 mmHg 37%
09:00 +27°C° 0 mm 1 mps 608 mmHg 34%
10:00 +28°C° 0 mm 1 mps 609 mmHg 30%
11:00 +30°C° 0 mm 1 mps 609 mmHg 27%
12:00 +31°C° 0 mm 1 mps 610 mmHg 24%
13:00 +32°C° 0 mm 1 mps 610 mmHg 22%
14:00 +34°C° 0 mm 2 mps 610 mmHg 20%
15:00 +34°C° 0 mm 2 mps 610 mmHg 20%
16:00 +34°C° 0 mm 3 mps 610 mmHg 21%
17:00 +33°C° 0 mm 4 mps 610 mmHg 22%
18:00 +30°C° 0.2 mm 4 mps 609 mmHg 29%
19:00 +28°C° 0.2 mm 3 mps 609 mmHg 35%
20:00 +26°C° 0.2 mm 3 mps 608 mmHg 42%
21:00 +25°C° 0.2 mm 3 mps 608 mmHg 45%
22:00 +24°C° 0.2 mm 3 mps 608 mmHg 48%
23:00 +24°C° 0.2 mm 3 mps 608 mmHg 52%

8 July, Wednesday

Time Temperature Precipitation Wind Pressure Humidity
00:00 +24°C° 0 mm 3 mps 608 mmHg 51%
01:00 +24°C° 0 mm 2 mps 608 mmHg 51%
02:00 +23°C° 0 mm 2 mps 607 mmHg 50%
03:00 +23°C° 0 mm 1 mps 607 mmHg 52%
04:00 +23°C° 0 mm 1 mps 607 mmHg 53%
05:00 +22°C° 0 mm 1 mps 607 mmHg 54%
06:00 +24°C° 0 mm 1 mps 607 mmHg 50%
07:00 +25°C° 0 mm 1 mps 608 mmHg 45%
08:00 +26°C° 0 mm 1 mps 608 mmHg 40%
09:00 +27°C° 0 mm 1 mps 609 mmHg 36%
10:00 +29°C° 0 mm 1 mps 609 mmHg 32%
11:00 +30°C° 0 mm 1 mps 609 mmHg 28%
12:00 +31°C° 0 mm 2 mps 610 mmHg 26%
13:00 +33°C° 0 mm 3 mps 610 mmHg 24%
14:00 +35°C° 0 mm 3 mps 610 mmHg 22%
15:00 +32°C° 0.4 mm 4 mps 609 mmHg 31%
16:00 +28°C° 0.4 mm 4 mps 608 mmHg 40%
17:00 +25°C° 0.4 mm 4 mps 607 mmHg 50%
18:00 +25°C° 0.5 mm 4 mps 607 mmHg 51%
19:00 +25°C° 0.5 mm 3 mps 607 mmHg 52%
20:00 +24°C° 0.5 mm 3 mps 607 mmHg 53%
21:00 +24°C° 0.3 mm 2 mps 607 mmHg 54%
22:00 +24°C° 0.3 mm 2 mps 607 mmHg 54%
23:00 +23°C° 0.3 mm 1 mps 607 mmHg 54%
Show more